This is the latest recevied weather packets stored in our database for station/object OK4AB-10. If no packets are shown the sender has not sent any weather packets the latest 1 day(s).
| Time | Temp. | Humidity | Pressure | Rain* | Wind** | Luminosity | Snow |
|---|---|---|---|---|---|---|---|
| 1778073947 | 27.78° C | 42% | 1006.6 hPa | - | - | - | - |
| 1778073887 | 27.78° C | 42% | 1006.8 hPa | - | - | - | - |
| 1778073767 | 27.78° C | 42% | 1006.6 hPa | - | - | - | - |
| 1778072086 | 28.89° C | 40% | 1006.4 hPa | - | - | - | - |
| 1778070886 | 30.56° C | 39% | 1007.1 hPa | - | - | - | - |
| 1778070766 | 30.56° C | 39% | 1007.1 hPa | - | - | - | - |
| 1778070466 | 30.56° C | 39% | 1006.9 hPa | - | - | - | - |
| 1778070106 | 31.11° C | 39% | 1006.7 hPa | - | - | - | - |
| 1778069986 | 31.11° C | 39% | 1005.9 hPa | - | - | - | - |
| 1778069926 | 31.11° C | 39% | 1006.6 hPa | - | - | - | - |
| 1778069866 | 31.67° C | 38% | 1006.4 hPa | - | - | - | - |
| 1778069686 | 31.67° C | 38% | 1007 hPa | - | - | - | - |
| 1778069566 | 31.67° C | 38% | 1007 hPa | - | - | - | - |
| 1778069506 | 31.67° C | 38% | 1007 hPa | - | - | - | - |
| 1778069386 | 31.67° C | 38% | 1006.6 hPa | - | - | - | - |
| 1778069326 | 31.67° C | 38% | 1006.8 hPa | - | - | - | - |
| 1778069266 | 31.67° C | 38% | 1006.5 hPa | - | - | - | - |
| 1778069206 | 31.67° C | 38% | 1006.3 hPa | - | - | - | - |
| 1778069086 | 32.22° C | 38% | 1007 hPa | - | - | - | - |
| 1778069026 | 32.22° C | 38% | 1006.3 hPa | - | - | - | - |
| 1778068966 | 32.22° C | 38% | 1006.7 hPa | - | - | - | - |
| 1778068846 | 32.22° C | 38% | 1006.4 hPa | - | - | - | - |
| 1778068786 | 32.22° C | 38% | 1007 hPa | - | - | - | - |
| 1778068666 | 32.22° C | 38% | 1008.3 hPa | - | - | - | - |
| 1778068606 | 32.22° C | 38% | 1007.7 hPa | - | - | - | - |
* Rain since midnight (hover to see other rain measurements)
** Current wind speed in m/s (hover to see current wind gust speed)